Location: Mason
(37.5237°N, 89.2543°W)
Time: 07:28:21
(UTC+00:00)

Cosmos 2084 Rocket - Pass Details

Date: 24 January 2021
Orbit: 531 x 649 km, 62.8° (Epoch: 09 March)

Event Time Altitude Azimuth Distance (km) Brightness Sun altitude
Exits shadow 12:15:27 - 330° (NNW) 2,319 6.1 -10.3°
Reaches altitude 10° 12:16:23 10° 331° (NNW) 1,951 5.7 -10.1°
Maximum altitude 12:20:48 71° 55° (NE) 657 3.8 -9.3°
Drops below altitude 10° 12:25:21 10° 140° (SE) 2,006 7.2 -8.4°
Sets 12:27:41 0° 143° (SE) 2,924 8.0 -8.0°
